Location: Rancho Del Sol Observatory
(38.7214°N, 120.6350°W)
Time: 18:37:10
(UTC-08:00)

Courier 1B Rocket - Pass Details

Date: 02 February 2020
Orbit: 920 x 1202 km, 28.2° (Epoch: 25 February)

Event Time Altitude Azimuth Distance (km) Brightness Sun altitude
Rises 07:19:49 0° 222° (SW) 4,071 8.0 1.3°
Reaches altitude 10° 07:23:17 10° 209° (SSW) 3,121 7.6 2.0°
Maximum altitude 07:29:10 24° 160° (SSE) 2,261 7.6 3.0°
Drops below altitude 10° 07:35:01 10° 110° (ESE) 3,093 10.3 4.0°
Sets 07:38:25 0° 97° (E) 4,027 9.9 4.6°
